Location: ??
(35.1715°N, 139.6450°E)
Time: 09:23:57
(UTC+00:00)

Meteor 1-15 Rocket - Pass Details

Date: 05 August 2024
Orbit: 839 x 906 km, 81.2° (Epoch: 14 September)

Event Time Altitude Azimuth Distance (km) Brightness Sun altitude
Exits shadow 18:17:25 22° 193° (SSW) 1,793 5.5 -18.1°
Maximum altitude 18:21:13 80° 278° (W) 879 4.2 -17.5°
Drops below altitude 10° 18:26:58 10° 6° (N) 2,529 7.2 -16.6°
Sets 18:29:27 0° 8° (N) 3,482 8.1 -16.1°
